FENGYUN 1C DEB

Satellite information

Favourite Embed

Satellite Type and Status

DEBRISIN ORBIT

Key statistics

Satellite FENGYUN 1C DEB at a glance.

Uptime

9496

Days in orbit

Revolutions

≈ 14.2

Per day

Orbit

SSO

Sun Synchronous Orbit

Inclination

98.8

Latest

Satellite identification and parameters

Extended collection of information and parameters for FENGYUN 1C DEB.

Object identification

Identified? True

Debris? True

Object name: FENGYUN 1C DEB

International designator: 1999-025EYH

Object number (NORAD): 41830

Object ID (CCSDS): 41830

Country: PEOPLES REPUBLIC OF CHINA (PRC)

Current information (Y/N): Y

RCS size: SMALL

Orbital parameters

Period: 101.08 minutes

Inclination: 98.7626 deg

SMA: 7187.949 km

Apoapsis: 851.239 km

Periapsis: 768.388 km

RAAN: 201.0129 deg

Eccentricy: 0.0057632

Argument of periapsis: 130.7158 deg

Mean anomaly: 229.9047 deg

Mean motion: 14.24607755 rev/day

Mean motion (dot): 0.00004219 rev/day2

B* drag term: 0.0018029 1/REarth

Two-line elements (TLE)

Creation date: May 9, 2025, 2:46 a.m.

Reference frame: TEME

Reference center: EARTH

Epoch: May 8, 2025, 5:34 p.m. UTC

TLE line 0: 0 FENGYUN 1C DEB

TLE line 1: 1 41830U 99025EYH 25128.73226937 .00004219 00000-0 18029-2 0 9996

TLE line 2: 2 41830 98.7626 201.0129 0057632 130.7158 229.9047 14.24607755441686

Live tracking on map

Real-time ground track for satellite FENGYUN 1C DEB.

In-orbit conjunctions

A list of the most updated potential collisions computed for object FENGYUN 1C DEB.

Target Orbit TCA Probability of collision Miss distance Type
SL-16 DEB LEO 2024-11-14 16:56:13 0.0001635352 937.0 (m) DEBRIS

Associated space launch

Chinese polar orbiting meteorological satellite

FENGYUN 1C DEB was lifted into orbit during the mission ‘Long March 4B | Feng Yun 1C’, on board a Long March 4B space rocket.

The launch took place on May 10, 1999, 1:33 a.m. from Launch Complex 7.

For more information about the launch, click the button.

Launch to space Long March 4B | Feng Yun 1C
Long March 4B | Feng Yun 1C

Agency: N/A

Status: Launch Successful

Launch date: May 10, 1999, 1:33 a.m. UTC

Rocket: Long March 4B

Launch pad: Launch Complex 7

Location: Taiyuan Satellite Launch Center, People's Republic of China

...

Latest news about this satellite

There are no fresh news available about this satellite. Check back as we update our databases every day.


Newsletter sign-up

Weekly statistics, charts and insights to help you stay on top of the space industry.